Dewpoint
69 70 70 69 60 57 51 52 54 54 55 56 57 55 59 62 56 47 68 70 72 73 74 74 75 74 74 74 74 74 74 74 74 74 74 74 74 74 74 74 74 74 74 74 74 75 74 74 75
70 70 72 67 56 50 49 53 53 55 56 58 58 60 61 61 65 66 67 71 73 73 74 74 75 75 75 75 74 74 74 74 74 74 74 74 74 74 73 73 73 73 74 74 74 74 75 73 73
72 73 66 62 57 49 49 54 54 55 56 56 58 61 62 61 65 67 69 72 73 73 74 73 74 75 75 75 75 74 74 74 74 74 74 74 74 73 73 73 73 73 73 73 73 73 74 74 73
71 70 67 58 53 52 54 54 55 56 57 59 60 60 63 66 66 69 71 72 72 73 73 75 75 75 74 75 74 74 74 74 74 74 74 74 74 73 73 73 73 74 73 73 73 73 73 73 74
71 66 58 56 53 54 55 55 56 57 57 58 59 61 62 67 69 70 71 72 72 73 73 74 76 75 75 74 73 74 74 74 74 74 74 74 74 73 73 73 72 73 73 73 73 73 72 72 73
65 64 56 52 53 54 56 59 59 58 59 60 60 61 63 68 67 70 71 71 72 72 72 74 75 74 74 74 72 73 73 74 74 74 74 73 72 72 72 72 72 72 72 73 73 72 72 72 72
64 60 56 57 55 57 58 62 57 57 57 57 61 60 64 66 69 70 71 72 72 72 73 73 73 73 73 72 73 73 73 73 73 73 72 72 72 71 71 72 72 72 72 72 73 72 72 71 72
65 62 57 56 55 57 60 60 58 57 56 60 62 60 61 67 70 70 71 71 72 72 72 72 72 72 72 72 74 73 73 72 72 72 72 72 72 73 73 73 74 71 71 71 72 72 71 72 73
65 58 54 54 56 59 61 58 59 58 57 58 59 62 65 69 68 69 70 70 71 71 72 72 71 72 72 73 72 74 73 73 72 72 72 72 72 73 72 72 72 72 72 72 72 72 71 72 73
62 55 53 58 60 60 61 61 61 56 56 60 63 66 67 67 67 67 67 67 69 69 71 71 70 71 71 72 72 73 73 73 72 72 73 73 73 73 73 74 72 72 73 72 72 71 71 73 71
61 53 55 58 60 62 61 61 61 56 56 58 62 65 66 66 66 65 65 67 68 69 70 70 70 70 70 70 71 72 72 72 66 71 72 73 74 73 69 69 70 73 74 73 73 73 72 71 71
55 55 56 58 62 62 62 63 62 63 63 61 64 66 66 66 65 64 64 65 67 68 69 69 69 69 69 68 70 71 72 70 70 72 72 72 72 70 68 68 69 71 72 73 73 72 72 71 70
55 55 58 61 61 62 62 62 62 62 63 60 64 65 65 65 64 63 63 65 67 67 67 68 69 69 68 69 70 71 72 71 70 71 72 69 69 70 69 66 68 70 71 72 72 72 71 71 71
58 58 60 62 62 60 59 61 61 63 64 61 63 63 64 64 62 62 63 64 67 67 66 67 68 69 67 69 70 71 72 72 70 72 71 69 68 70 70 67 69 71 71 70 70 70 71 72 72
58 56 58 60 61 60 61 58 59 63 63 58 61 62 62 62 60 60 62 64 66 65 64 65 67 67 68 70 71 71 72 71 68 71 72 71 70 71 70 68 68 71 71 71 70 71 72 71 70
52 52 51 57 59 60 58 53 60 63 63 59 56 58 59 58 57 58 60 64 65 63 64 66 66 68 69 69 70 71 72 71 66 69 72 72 72 72 70 69 69 71 72 71 71 71 70 69 68
41 46 49 53 58 59 58 53 61 63 63 60 55 56 56 56 57 58 58 62 63 63 65 66 68 69 69 69 70 72 71 71 71 71 72 73 72 73 71 69 70 72 72 72 71 71 71 69 69
42 48 49 50 55 57 56 54 58 62 63 61 56 55 55 56 56 57 58 60 63 64 65 67 69 69 70 70 71 72 71 71 72 72 72 73 73 74 71 70 70 71 71 70 70 70 70 69 68
40 38 37 50 56 52 52 52 57 61 63 61 60 55 54 54 56 57 58 61 63 65 66 68 69 69 69 70 70 71 70 71 71 73 73 73 72 71 71 69 69 70 69 69 69 67 67 67 68
39 38 38 53 55 49 51 51 54 59 61 59 58 58 55 54 54 56 58 62 64 65 67 69 69 69 69 69 70 69 70 71 72 72 72 72 72 72 70 68 68 69 68 67 68 68 63 63 65
37 37 37 42 53 51 50 47 50 53 58 58 57 57 59 55 53 55 58 62 64 65 67 68 68 68 69 69 71 71 72 71 71 70 70 73 74 72 70 69 69 69 67 65 65 65 64 61 62
36 36 36 51 46 40 47 36 46 50 52 54 54 55 56 55 54 55 57 61 64 65 66 68 68 68 69 69 71 70 69 69 70 70 71 72 74 72 71 70 72 69 66 67 66 65 65 62 61
36 36 35 47 45 45 46 42 41 48 49 50 53 54 56 57 53 54 56 60 63 65 66 67 68 68 68 70 70 70 70 70 70 70 70 72 74 74 74 74 73 70 67 67 66 67 66 63 60
31 23 32 40 41 38 39 40 35 48 46 49 52 54 58 58 53 54 56 60 62 64 66 67 68 68 68 69 70 70 70 69 69 69 69 70 72 73 74 74 74 71 69 67 66 66 64 64 63
22 19 18 28 35 35 39 42 35 42 49 47 49 53 56 60 53 54 55 60 62 63 65 67 68 68 68 69 70 69 70 70 69 69 69 70 71 72 74 74 74 73 72 71 68 66 64 63 63
20 19 18 18 31 31 39 36 35 41 43 47 48 50 55 59 55 53 54 59 61 63 65 67 68 68 68 69 71 72 72 70 70 70 69 69 70 71 74 74 74 73 72 71 70 68 67 66 63
14 17 20 19 28 26 29 32 32 35 42 46 49 52 56 57 57 53 54 57 60 62 63 66 67 68 68 69 70 71 72 72 71 70 71 70 71 71 73 74 74 74 74 73 71 71 69 69 68
13 15 13 18 14 20 21 30 29 35 41 50 49 51 56 58 58 55 53 56 59 62 63 66 67 67 67 68 69 70 71 72 72 71 71 71 71 71 72 74 74 74 75 74 73 72 71 70 70
7 9 17 19 18 16 17 20 32 36 42 50 53 53 53 58 58 57 54 55 60 63 63 65 67 67 67 68 68 69 70 72 73 72 71 71 71 72 72 72 74 74 75 75 74 74 73 72 73
7 6 12 11 10 25 22 20 31 38 40 51 54 57 58 59 58 58 56 56 62 63 64 66 67 68 67 69 69 68 70 72 72 72 72 72 71 72 72 73 73 74 74 75 74 74 74 74 73
Lifted_Index
-0 -1 -2 -2 -2 -1 -1 -1 -0 -0 -0 -0 -1 -1 -2 -2 -2 -2 -3 -5 -6 -6 -7 -7 -7 -7 -7 -7 -7 -7 -7 -6 -6 -6 -5 -5 -5 -4 -4 -5 -5 -5 -5 -5 -5 -5 -5 -5 -6
-1 -2 -2 -2 -2 -1 -1 -0 -0 -0 -1 -1 -1 -2 -2 -2 -2 -3 -4 -5 -6 -6 -7 -7 -7 -7 -7 -7 -7 -7 -7 -6 -6 -5 -5 -5 -4 -4 -4 -4 -4 -4 -4 -5 -5 -5 -5 -5 -5
-2 -2 -2 -2 -1 -1 -0 -0 -0 -1 -1 -1 -2 -2 -2 -2 -3 -3 -4 -5 -6 -6 -6 -7 -7 -7 -7 -7 -7 -7 -6 -6 -5 -5 -5 -5 -4 -4 -4 -4 -4 -4 -4 -4 -4 -5 -5 -5 -5
-2 -2 -2 -2 -1 -0 -0 -0 -0 -1 -1 -1 -2 -2 -2 -2 -3 -3 -4 -5 -5 -6 -6 -6 -7 -7 -6 -6 -6 -6 -6 -6 -5 -5 -5 -4 -4 -4 -4 -4 -4 -4 -4 -4 -4 -5 -5 -5 -5
-2 -2 -2 -1 -1 -1 -0 -0 -0 -1 -1 -1 -1 -2 -2 -2 -3 -3 -4 -4 -5 -5 -6 -6 -6 -6 -6 -6 -6 -6 -6 -6 -5 -5 -4 -4 -4 -4 -4 -4 -4 -4 -4 -4 -4 -4 -5 -5 -5
-2 -1 -1 -1 -1 -1 -1 -1 -1 -1 -1 -1 -1 -2 -2 -2 -3 -3 -4 -4 -5 -5 -5 -6 -6 -6 -6 -5 -5 -5 -6 -5 -5 -5 -4 -4 -3 -3 -3 -4 -4 -4 -4 -4 -4 -4 -4 -4 -4
-1 -1 -1 -1 -1 -1 -1 -1 -1 -1 -1 -1 -1 -1 -2 -2 -3 -3 -3 -4 -4 -4 -5 -5 -6 -5 -5 -5 -5 -6 -6 -5 -5 -4 -4 -3 -3 -3 -3 -4 -4 -4 -4 -4 -4 -4 -3 -3 -3
-1 -1 -1 -1 -1 -2 -2 -1 -1 -1 -0 -1 -1 -1 -1 -2 -3 -3 -3 -3 -3 -4 -4 -4 -5 -5 -5 -5 -5 -6 -5 -5 -5 -4 -4 -4 -4 -4 -4 -4 -4 -4 -4 -4 -3 -3 -3 -3 -3
-1 -1 -1 -1 -1 -2 -2 -2 -1 -1 -0 -1 -1 -1 -2 -2 -2 -2 -2 -2 -2 -3 -3 -3 -3 -4 -4 -5 -5 -5 -5 -5 -5 -4 -4 -4 -4 -4 -4 -4 -4 -4 -4 -3 -3 -3 -3 -3 -3
-1 -0 -0 -1 -2 -2 -2 -2 -1 -1 -0 -1 -1 -2 -2 -2 -2 -2 -2 -1 -1 -2 -2 -2 -2 -3 -4 -4 -4 -5 -5 -5 -4 -4 -4 -4 -4 -4 -4 -4 -4 -4 -4 -4 -3 -3 -3 -3 -3
-1 -0 0 -1 -2 -2 -2 -2 -2 -1 -1 -1 -1 -2 -2 -2 -1 -1 -1 -1 -1 -1 -2 -2 -2 -2 -2 -3 -3 -4 -4 -4 -4 -4 -3 -3 -3 -3 -3 -3 -3 -4 -4 -4 -3 -3 -3 -2 -2
-1 -1 -0 -1 -2 -2 -2 -2 -2 -2 -1 -1 -1 -1 -2 -1 -1 0 0 0 -0 -1 -1 -1 -1 -1 -1 -2 -2 -3 -3 -3 -3 -3 -3 -3 -3 -2 -2 -2 -2 -3 -3 -3 -3 -2 -2 -1 -1
-2 -1 -1 -1 -1 -1 -1 -1 -2 -2 -1 -1 -1 -1 -1 -1 -0 0 1 0 -0 -0 -0 -1 -1 -2 -2 -2 -2 -2 -3 -2 -2 -2 -3 -2 -2 -1 -1 -1 -1 -1 -1 -1 -1 -1 -1 -1 -1
-2 -2 -2 -2 -1 -1 -1 -1 -1 -1 -1 -1 -1 -1 -1 -1 -0 0 0 -0 -0 0 -0 -1 -1 -2 -2 -2 -2 -3 -3 -3 -2 -2 -2 -2 -1 -1 -1 -1 -1 -1 -1 -1 -1 -1 -1 -2 -2
-2 -2 -2 -2 -2 -1 -0 -0 -0 -0 -0 -1 -0 -0 -0 -0 0 1 0 -0 -0 0 -0 -1 -1 -2 -2 -2 -2 -3 -3 -3 -2 -2 -2 -1 -1 -1 -1 -1 -1 -1 -1 -1 -1 -2 -2 -2 -2
-2 -2 -2 -2 -2 -1 -0 0 0 0 -0 -1 -0 0 0 1 1 1 1 0 0 0 -0 -1 -1 -2 -2 -2 -2 -2 -2 -2 -2 -2 -2 -2 -2 -2 -1 -1 -1 -1 -2 -2 -2 -2 -2 -2 -2
-1 -1 -1 -1 -1 -1 -1 0 0 0 -0 -1 -0 0 1 1 2 2 1 1 0 0 0 -1 -1 -1 -2 -2 -2 -2 -2 -2 -2 -2 -2 -3 -3 -3 -2 -2 -2 -2 -2 -2 -2 -3 -3 -2 -2
-1 -1 -1 -1 -1 -1 -0 1 1 0 -0 -0 -0 0 0 1 2 2 2 1 1 1 0 -0 -1 -1 -2 -2 -2 -2 -2 -2 -2 -3 -3 -3 -3 -3 -2 -2 -2 -3 -3 -3 -3 -3 -3 -3 -3
-1 -1 -1 -1 -1 -1 0 1 1 1 0 -0 -0 -0 -0 1 1 2 2 2 1 1 1 0 -1 -1 -2 -2 -2 -3 -3 -3 -3 -3 -3 -3 -3 -2 -2 -2 -2 -2 -2 -2 -2 -2 -3 -3 -3
-1 -1 -1 -1 -1 -0 1 2 2 1 1 0 -0 -1 -0 0 1 1 1 1 1 1 0 -0 -1 -1 -1 -2 -2 -3 -3 -3 -3 -3 -3 -3 -3 -2 -2 -2 -1 -1 -1 -2 -2 -2 -2 -2 -3
-1 -1 -1 -1 -1 -0 1 2 2 2 1 0 -0 -1 -1 -0 0 1 1 1 1 0 0 -0 -1 -1 -1 -1 -2 -3 -3 -3 -3 -3 -3 -3 -3 -3 -2 -2 -1 -0 -0 -1 -1 -2 -2 -2 -2
-1 -1 -1 -1 -1 0 1 2 2 2 1 0 -0 -1 -1 -1 -0 0 1 1 0 -0 -0 -0 -1 -1 -1 -1 -2 -2 -3 -3 -3 -3 -3 -3 -3 -3 -3 -3 -2 -1 0 0 -1 -1 -2 -2 -2
-0 -0 -0 -0 -0 0 1 2 2 2 1 0 -0 -0 -1 -1 -1 -0 0 1 0 -0 -0 -0 -1 -1 -1 -1 -2 -2 -3 -3 -3 -3 -3 -3 -3 -3 -3 -3 -3 -2 -0 1 0 -1 -1 -1 -1
0 0 0 -0 0 0 1 2 2 1 1 1 1 0 -1 -1 -1 -1 0 1 0 -0 -0 -0 -1 -0 -1 -1 -2 -2 -3 -3 -3 -3 -3 -3 -3 -3 -3 -3 -3 -3 -1 -0 0 0 0 1 1
0 0 0 0 0 0 1 2 2 1 1 1 1 0 -0 -1 -1 -1 -0 -0 -0 -0 -0 -1 -1 -1 -1 -1 -2 -3 -3 -3 -3 -3 -3 -3 -3 -3 -4 -3 -3 -3 -3 -2 -1 0 1 2 2
1 1 1 0 0 0 1 1 1 1 1 1 1 1 -0 -1 -1 -1 -1 -1 -1 -0 -0 -1 -1 -1 -1 -1 -2 -3 -3 -3 -3 -3 -3 -3 -3 -3 -4 -4 -4 -4 -4 -3 -2 -1 1 1 2
2 2 2 1 0 0 1 1 1 2 2 1 1 1 -0 -1 -1 -1 -2 -2 -2 -1 -1 -1 -1 -1 -1 -1 -2 -2 -3 -3 -4 -3 -3 -2 -3 -3 -3 -4 -4 -5 -5 -5 -4 -3 -2 -1 -0
4 3 3 2 1 0 1 1 1 2 2 1 1 1 -0 -1 -1 -1 -2 -2 -2 -2 -1 -1 -1 -1 -1 -1 -1 -2 -2 -3 -3 -3 -3 -3 -3 -3 -3 -4 -4 -5 -5 -5 -5 -5 -4 -3 -3
4 4 3 2 2 1 0 1 2 2 2 1 0 0 -0 -1 -1 -2 -2 -2 -3 -3 -2 -2 -2 -2 -1 -1 -1 -1 -1 -2 -3 -3 -3 -3 -3 -3 -3 -3 -4 -5 -5 -6 -6 -6 -6 -5 -5
4 4 4 3 2 1 1 1 2 3 2 0 -1 -1 -1 -1 -1 -2 -2 -2 -3 -3 -3 -2 -2 -2 -2 -1 -1 -1 -1 -2 -2 -3 -3 -3 -3 -3 -3 -3 -4 -5 -5 -6 -6 -7 -7 -7 -7